Time,TemperatureF,DewpointF,PressureIn,WindDirection,WindDirectionDegrees,WindSpeedMPH,WindSpeedGustMPH,Humidity,HourlyPrecipIn,Conditions,Clouds,dailyrainin,SoftwareType,DateUTC
2013-05-04 00:01:00,42.0,34.0,30.27,WSW,244,1.0,4.0,73,0.00,,,0.04,,2013-05-04 06:01:00,
2013-05-04 00:11:00,42.0,34.0,30.27,WSW,244,1.0,4.0,73,0.00,,,0.04,,2013-05-04 06:11:00,
2013-05-04 00:21:00,42.0,34.0,30.27,WSW,244,1.0,4.0,74,0.00,,,0.04,,2013-05-04 06:21:00,
2013-05-04 00:32:00,42.0,34.0,30.27,WSW,247,0.0,4.0,74,0.00,,,0.04,,2013-05-04 06:32:00,
2013-05-04 00:41:00,42.0,34.0,30.27,WSW,247,0.0,4.0,74,0.00,,,0.04,,2013-05-04 06:41:00,
2013-05-04 00:52:00,42.0,34.0,30.27,WSW,247,1.0,3.0,73,0.00,,,0.04,,2013-05-04 06:52:00,
2013-05-04 01:01:00,42.0,34.0,30.28,WNW,296,3.0,7.0,74,0.00,,,0.04,,2013-05-04 07:01:00,
2013-05-04 01:11:00,42.0,34.0,30.28,WNW,296,3.0,7.0,74,0.00,,,0.04,,2013-05-04 07:11:00,
2013-05-04 01:21:00,41.0,34.0,30.27,West,279,2.0,5.0,75,0.00,,,0.04,,2013-05-04 07:21:00,
2013-05-04 01:31:00,41.0,34.0,30.27,WSW,242,1.0,5.0,75,0.00,,,0.04,,2013-05-04 07:31:00,
2013-05-04 01:41:00,41.0,34.0,30.27,WSW,242,1.0,5.0,75,0.00,,,0.04,,2013-05-04 07:41:00,
2013-05-04 01:52:00,40.0,33.0,30.28,WSW,244,0.0,1.0,75,0.00,,,0.04,,2013-05-04 07:52:00,
2013-05-04 02:01:00,40.0,34.0,30.28,WNW,299,2.0,6.0,78,0.00,,,0.04,,2013-05-04 08:01:00,
2013-05-04 02:11:00,40.0,34.0,30.28,WNW,299,2.0,6.0,78,0.00,,,0.04,,2013-05-04 08:11:00,
2013-05-04 02:21:00,40.0,34.0,30.29,West,262,0.0,5.0,79,0.00,,,0.04,,2013-05-04 08:21:00,
2013-05-04 02:31:00,40.0,34.0,30.29,West,262,2.0,6.0,79,0.00,,,0.04,,2013-05-04 08:31:00,
2013-05-04 02:41:00,40.0,34.0,30.29,West,262,2.0,6.0,79,0.00,,,0.04,,2013-05-04 08:41:00,
2013-05-04 02:52:00,39.0,33.0,30.28,West,266,2.0,5.0,79,0.00,,,0.04,,2013-05-04 08:52:00,
2013-05-04 03:02:00,39.0,33.0,30.28,West,263,2.0,5.0,79,0.00,,,0.04,,2013-05-04 09:02:00,
2013-05-04 03:11:00,39.0,33.0,30.28,West,263,2.0,5.0,79,0.00,,,0.04,,2013-05-04 09:11:00,
2013-05-04 03:21:00,38.0,32.0,30.28,WNW,289,1.0,5.0,80,0.00,,,0.04,,2013-05-04 09:21:00,
2013-05-04 03:32:00,38.0,33.0,30.29,WNW,289,0.0,4.0,82,0.00,,,0.04,,2013-05-04 09:32:00,
2013-05-04 03:42:00,38.0,33.0,30.29,WNW,289,0.0,4.0,82,0.00,,,0.04,,2013-05-04 09:42:00,
2013-05-04 03:52:00,38.0,33.0,30.28,WNW,288,0.0,4.0,82,0.00,,,0.04,,2013-05-04 09:52:00,
2013-05-04 04:02:00,37.0,32.0,30.29,WSW,246,2.0,5.0,82,0.00,,,0.04,,2013-05-04 10:02:00,
2013-05-04 04:12:00,37.0,32.0,30.29,WSW,246,2.0,5.0,82,0.00,,,0.04,,2013-05-04 10:12:00,
2013-05-04 04:22:00,37.0,32.0,30.29,WSW,245,0.0,4.0,82,0.00,,,0.04,,2013-05-04 10:22:00,
2013-05-04 04:32:00,37.0,32.0,30.28,West,275,1.0,4.0,83,0.00,,,0.04,,2013-05-04 10:32:00,
2013-05-04 04:42:00,37.0,32.0,30.28,West,275,1.0,4.0,83,0.00,,,0.04,,2013-05-04 10:42:00,
2013-05-04 04:52:00,36.0,31.0,30.29,West,275,0.0,3.0,82,0.00,,,0.04,,2013-05-04 10:52:00,
2013-05-04 05:02:00,36.0,32.0,30.29,WNW,297,3.0,7.0,84,0.00,,,0.04,,2013-05-04 11:02:00,
2013-05-04 05:11:00,36.0,32.0,30.29,WNW,297,3.0,7.0,84,0.00,,,0.04,,2013-05-04 11:11:00,
2013-05-04 05:21:00,36.0,32.0,30.29,WNW,300,1.0,6.0,85,0.00,,,0.04,,2013-05-04 11:21:00,
2013-05-04 05:32:00,35.0,31.0,30.30,WNW,292,2.0,6.0,84,0.00,,,0.04,,2013-05-04 11:32:00,
2013-05-04 05:42:00,35.0,31.0,30.30,WNW,292,2.0,6.0,84,0.00,,,0.04,,2013-05-04 11:42:00,
2013-05-04 05:53:00,35.0,31.0,30.30,NW,311,2.0,6.0,84,0.00,,,0.04,,2013-05-04 11:53:00,
2013-05-04 06:12:00,35.0,31.0,30.30,WNW,292,3.0,6.0,85,0.00,,,0.04,,2013-05-04 12:12:00,
2013-05-04 06:23:00,35.0,31.0,30.30,WNW,288,0.0,2.0,85,0.00,,,0.04,,2013-05-04 12:23:00,
2013-05-04 06:41:00,34.0,30.0,30.31,WSW,254,1.0,4.0,85,0.00,,,0.04,,2013-05-04 12:41:00,
2013-05-04 06:51:00,34.0,30.0,30.31,WSW,252,1.0,4.0,85,0.00,,,0.04,,2013-05-04 12:51:00,
2013-05-04 07:01:00,34.0,30.0,30.32,WSW,252,0.0,4.0,86,0.00,,,0.04,,2013-05-04 13:01:00,
2013-05-04 07:11:00,34.0,30.0,30.32,WSW,252,0.0,4.0,86,0.00,,,0.04,,2013-05-04 13:11:00,
2013-05-04 07:21:00,34.0,30.0,30.32,WSW,252,1.0,4.0,86,0.00,,,0.04,,2013-05-04 13:21:00,
2013-05-04 07:32:00,34.0,30.0,30.32,WSW,252,0.0,5.0,86,0.00,,,0.04,,2013-05-04 13:32:00,
2013-05-04 07:41:00,34.0,30.0,30.32,WSW,252,0.0,5.0,86,0.00,,,0.04,,2013-05-04 13:41:00,
2013-05-04 07:52:00,36.0,32.0,30.32,WSW,248,1.0,5.0,86,0.00,,,0.04,,2013-05-04 13:52:00,
2013-05-04 08:02:00,37.0,32.0,30.32,WNW,285,3.0,7.0,83,0.00,,,0.04,,2013-05-04 14:02:00,
2013-05-04 08:11:00,37.0,32.0,30.32,WNW,285,3.0,7.0,83,0.00,,,0.04,,2013-05-04 14:11:00,
2013-05-04 08:21:00,39.0,33.0,30.32,WNW,299,2.0,6.0,80,0.00,,,0.04,,2013-05-04 14:21:00,
2013-05-04 08:32:00,40.0,34.0,30.32,WNW,292,3.0,8.0,79,0.00,,,0.02,,2013-05-04 14:32:00,
2013-05-04 08:41:00,40.0,34.0,30.32,WNW,292,3.0,8.0,79,0.00,,,0.02,,2013-05-04 14:41:00,
2013-05-04 08:51:00,42.0,36.0,30.32,NW,315,2.0,6.0,79,0.00,,,0.02,,2013-05-04 14:51:00,
2013-05-04 09:01:00,44.0,37.0,30.32,NNW,340,3.0,7.0,76,0.00,,,0.02,,2013-05-04 15:01:00,
2013-05-04 09:11:00,44.0,37.0,30.32,NNW,340,3.0,7.0,76,0.00,,,0.02,,2013-05-04 15:11:00,
2013-05-04 09:21:00,46.0,37.0,30.32,NNW,336,5.0,9.0,72,0.00,,,0.02,,2013-05-04 15:21:00,
2013-05-04 09:33:00,47.0,38.0,30.32,NNW,336,1.0,7.0,72,0.00,,,0.01,,2013-05-04 15:33:00,
2013-05-04 09:43:00,47.0,38.0,30.32,NNW,336,1.0,7.0,72,0.00,,,0.01,,2013-05-04 15:43:00,
2013-05-04 09:52:00,50.0,39.0,30.32,NE,36,2.0,6.0,66,0.00,,,0.01,,2013-05-04 15:52:00,
2013-05-04 10:03:00,52.0,39.0,30.32,NNE,19,1.0,5.0,61,0.00,,,0.01,,2013-05-04 16:03:00,
2013-05-04 10:12:00,52.0,39.0,30.32,NNE,19,1.0,5.0,61,0.00,,,0.01,,2013-05-04 16:12:00,
2013-05-04 10:22:00,52.0,36.0,30.32,NE,49,2.0,6.0,55,0.00,,,0.01,,2013-05-04 16:22:00,
2013-05-04 10:33:00,54.0,38.0,30.32,NNE,25,4.0,8.0,54,0.00,,,0.00,,2013-05-04 16:33:00,
2013-05-04 10:42:00,54.0,38.0,30.32,NNE,25,4.0,8.0,54,0.00,,,0.00,,2013-05-04 16:42:00,
2013-05-04 10:52:00,57.0,37.0,30.31,NE,40,5.0,11.0,47,0.00,,,0.00,,2013-05-04 16:52:00,
2013-05-04 11:02:00,58.0,35.0,30.31,NNE,17,9.0,15.0,42,0.00,,,0.00,,2013-05-04 17:02:00,
2013-05-04 11:12:00,58.0,35.0,30.31,NNE,17,9.0,15.0,42,0.00,,,0.00,,2013-05-04 17:12:00,
2013-05-04 11:22:00,58.0,34.0,30.31,NE,50,8.0,18.0,41,0.00,,,0.00,,2013-05-04 17:22:00,
2013-05-04 11:32:00,59.0,33.0,30.31,NE,36,7.0,13.0,37,0.00,,,0.00,,2013-05-04 17:32:00,
2013-05-04 11:42:00,59.0,33.0,30.31,NE,36,7.0,13.0,37,0.00,,,0.00,,2013-05-04 17:42:00,
2013-05-04 11:52:00,60.0,34.0,30.30,NNE,32,8.0,12.0,37,0.00,,,0.00,,2013-05-04 17:52:00,
2013-05-04 12:01:00,60.0,32.0,30.30,NNE,17,4.0,14.0,35,0.00,,,0.00,,2013-05-04 18:01:00,
2013-05-04 12:12:00,60.0,32.0,30.30,NNE,17,4.0,14.0,35,0.00,,,0.00,,2013-05-04 18:12:00,
2013-05-04 12:21:00,60.0,32.0,30.30,NNE,20,0.0,12.0,34,0.00,,,0.00,,2013-05-04 18:21:00,
2013-05-04 12:32:00,61.0,32.0,30.30,NE,36,4.0,11.0,34,0.00,,,0.00,,2013-05-04 18:32:00,
2013-05-04 12:42:00,61.0,32.0,30.30,NE,36,4.0,11.0,34,0.00,,,0.00,,2013-05-04 18:42:00,
2013-05-04 12:52:00,59.0,32.0,30.30,East,82,2.0,7.0,36,0.00,,,0.00,,2013-05-04 18:52:00,
2013-05-04 13:01:00,60.0,32.0,30.29,NNW,333,5.0,10.0,35,0.00,,,0.00,,2013-05-04 19:01:00,
2013-05-04 13:11:00,60.0,32.0,30.29,NNW,333,5.0,10.0,35,0.00,,,0.00,,2013-05-04 19:11:00,
2013-05-04 13:21:00,61.0,32.0,30.29,South,186,5.0,8.0,34,0.00,,,0.00,,2013-05-04 19:21:00,
2013-05-04 13:31:00,60.0,30.0,30.28,ESE,117,2.0,6.0,32,0.00,,,0.00,,2013-05-04 19:31:00,
2013-05-04 13:41:00,60.0,30.0,30.28,ESE,117,2.0,6.0,32,0.00,,,0.00,,2013-05-04 19:41:00,
2013-05-04 13:52:00,59.0,31.0,30.28,NNW,327,3.0,10.0,34,0.00,,,0.00,,2013-05-04 19:52:00,
2013-05-04 14:01:00,61.0,31.0,30.27,NE,41,3.0,8.0,32,0.00,,,0.00,,2013-05-04 20:01:00,
2013-05-04 14:11:00,61.0,31.0,30.27,NE,41,3.0,8.0,32,0.00,,,0.00,,2013-05-04 20:11:00,
2013-05-04 14:21:00,61.0,31.0,30.27,NE,41,3.0,8.0,32,0.00,,,0.00,,2013-05-04 20:21:00,
2013-05-04 14:31:00,61.0,32.0,30.27,NE,38,8.0,15.0,33,0.00,,,0.00,,2013-05-04 20:31:00,
2013-05-04 14:41:00,61.0,32.0,30.27,NE,38,8.0,15.0,33,0.00,,,0.00,,2013-05-04 20:41:00,
2013-05-04 14:52:00,61.0,32.0,30.26,NE,53,8.0,12.0,33,0.00,,,0.00,,2013-05-04 20:52:00,
2013-05-04 15:01:00,61.0,32.0,30.26,NE,49,7.0,10.0,33,0.00,,,0.00,,2013-05-04 21:01:00,
2013-05-04 15:11:00,61.0,32.0,30.26,NE,49,7.0,10.0,33,0.00,,,0.00,,2013-05-04 21:11:00,
2013-05-04 15:21:00,60.0,30.0,30.25,NE,36,2.0,5.0,32,0.00,,,0.00,,2013-05-04 21:21:00,
2013-05-04 15:33:00,61.0,32.0,30.24,East,94,0.0,2.0,34,0.00,,,0.00,,2013-05-04 21:33:00,
2013-05-04 15:43:00,61.0,32.0,30.24,East,94,0.0,2.0,34,0.00,,,0.00,,2013-05-04 21:43:00,
2013-05-04 15:52:00,63.0,33.0,30.23,NNE,29,5.0,9.0,32,0.00,,,0.00,,2013-05-04 21:52:00,
2013-05-04 16:02:00,63.0,31.0,30.23,WNW,296,2.0,9.0,30,0.00,,,0.00,,2013-05-04 22:02:00,
2013-05-04 16:12:00,63.0,31.0,30.23,WNW,296,2.0,9.0,30,0.00,,,0.00,,2013-05-04 22:12:00,
2013-05-04 16:22:00,64.0,33.0,30.23,ENE,67,1.0,15.0,31,0.00,,,0.00,,2013-05-04 22:22:00,
2013-05-04 16:32:00,64.0,31.0,30.22,NNW,332,4.0,15.0,29,0.00,,,0.00,,2013-05-04 22:32:00,
2013-05-04 16:42:00,64.0,31.0,30.22,NNW,332,4.0,15.0,29,0.00,,,0.00,,2013-05-04 22:42:00,
2013-05-04 16:52:00,63.0,31.0,30.21,East,90,7.0,10.0,30,0.00,,,0.00,,2013-05-04 22:52:00,
2013-05-04 17:02:00,63.0,33.0,30.21,SE,130,3.0,13.0,32,0.00,,,0.00,,2013-05-04 23:02:00,
2013-05-04 17:11:00,63.0,33.0,30.21,SE,130,3.0,13.0,32,0.00,,,0.00,,2013-05-04 23:11:00,
2013-05-04 17:21:00,63.0,30.0,30.21,NE,47,5.0,12.0,29,0.00,,,0.00,,2013-05-04 23:21:00,
2013-05-04 17:32:00,62.0,32.0,30.20,SSE,149,2.0,5.0,32,0.00,,,0.00,,2013-05-04 23:32:00,
2013-05-04 17:42:00,62.0,32.0,30.20,SSE,149,2.0,5.0,32,0.00,,,0.00,,2013-05-04 23:42:00,
2013-05-04 17:52:00,64.0,32.0,30.20,ENE,71,2.0,12.0,30,0.00,,,0.00,,2013-05-04 23:52:00,
2013-05-04 18:01:00,64.0,29.0,30.19,NE,48,7.0,13.0,27,0.00,,,0.00,,2013-05-05 00:01:00,
2013-05-04 18:11:00,64.0,29.0,30.19,NE,48,7.0,13.0,27,0.00,,,0.00,,2013-05-05 00:11:00,
2013-05-04 18:21:00,63.0,30.0,30.19,NE,43,3.0,12.0,29,0.00,,,0.00,,2013-05-05 00:21:00,
2013-05-04 18:31:00,62.0,29.0,30.19,ESE,113,3.0,5.0,29,0.00,,,0.00,,2013-05-05 00:31:00,
2013-05-04 18:42:00,62.0,29.0,30.19,ESE,113,3.0,5.0,29,0.00,,,0.00,,2013-05-05 00:42:00,
2013-05-04 18:51:00,63.0,30.0,30.18,ENE,58,7.0,14.0,29,0.00,,,0.00,,2013-05-05 00:51:00,
2013-05-04 19:01:00,63.0,29.0,30.18,ENE,72,2.0,11.0,28,0.00,,,0.00,,2013-05-05 01:01:00,
2013-05-04 19:11:00,63.0,29.0,30.18,ENE,72,2.0,11.0,28,0.00,,,0.00,,2013-05-05 01:11:00,
2013-05-04 19:21:00,62.0,29.0,30.17,East,96,0.0,5.0,29,0.00,,,0.00,,2013-05-05 01:21:00,
2013-05-04 19:32:00,62.0,29.0,30.17,East,88,0.0,3.0,29,0.00,,,0.00,,2013-05-05 01:32:00,
2013-05-04 19:42:00,62.0,29.0,30.17,East,88,0.0,3.0,29,0.00,,,0.00,,2013-05-05 01:42:00,
2013-05-04 19:52:00,63.0,29.0,30.16,ENE,75,4.0,9.0,28,0.00,,,0.00,,2013-05-05 01:52:00,
2013-05-04 20:02:00,62.0,29.0,30.16,ENE,73,4.0,7.0,29,0.00,,,0.00,,2013-05-05 02:02:00,
2013-05-04 20:11:00,62.0,29.0,30.16,ENE,73,4.0,7.0,29,0.00,,,0.00,,2013-05-05 02:11:00,
2013-05-04 20:21:00,62.0,29.0,30.16,ENE,77,1.0,8.0,29,0.00,,,0.00,,2013-05-05 02:21:00,
2013-05-04 20:31:00,61.0,29.0,30.16,East,90,1.0,7.0,30,0.00,,,0.00,,2013-05-05 02:31:00,
2013-05-04 20:42:00,61.0,29.0,30.16,East,90,1.0,7.0,30,0.00,,,0.00,,2013-05-05 02:42:00,
2013-05-04 20:51:00,60.0,28.0,30.16,NE,55,1.0,5.0,30,0.00,,,0.00,,2013-05-05 02:51:00,
2013-05-04 21:01:00,60.0,29.0,30.16,ENE,67,0.0,2.0,31,0.00,,,0.00,,2013-05-05 03:01:00,
2013-05-04 21:11:00,60.0,29.0,30.16,ENE,67,0.0,2.0,31,0.00,,,0.00,,2013-05-05 03:11:00,
2013-05-04 21:21:00,59.0,30.0,30.15,ENE,67,0.0,0.0,33,0.00,,,0.00,,2013-05-05 03:21:00,
2013-05-04 21:32:00,57.0,30.0,30.15,ENE,67,0.0,1.0,35,0.00,,,0.00,,2013-05-05 03:32:00,
2013-05-04 21:42:00,57.0,30.0,30.15,ENE,67,0.0,1.0,35,0.00,,,0.00,,2013-05-05 03:42:00,
2013-05-04 21:52:00,55.0,30.0,30.16,NE,40,0.0,2.0,38,0.00,,,0.00,,2013-05-05 03:52:00,
2013-05-04 22:02:00,53.0,30.0,30.16,NE,40,0.0,1.0,41,0.00,,,0.00,,2013-05-05 04:02:00,
2013-05-04 22:12:00,53.0,30.0,30.16,NE,40,0.0,1.0,41,0.00,,,0.00,,2013-05-05 04:12:00,
2013-05-04 22:22:00,52.0,31.0,30.16,NE,39,0.0,3.0,44,0.00,,,0.00,,2013-05-05 04:22:00,
2013-05-04 22:32:00,49.0,31.0,30.17,West,266,2.0,5.0,50,0.00,,,0.00,,2013-05-05 04:32:00,
2013-05-04 22:43:00,49.0,31.0,30.17,West,266,2.0,5.0,50,0.00,,,0.00,,2013-05-05 04:43:00,
2013-05-04 22:52:00,48.0,31.0,30.16,West,266,0.0,2.0,52,0.00,,,0.00,,2013-05-05 04:52:00,
2013-05-04 23:02:00,47.0,31.0,30.17,West,266,0.0,1.0,53,0.00,,,0.00,,2013-05-05 05:02:00,
2013-05-04 23:12:00,47.0,31.0,30.17,West,266,0.0,1.0,53,0.00,,,0.00,,2013-05-05 05:12:00,
2013-05-04 23:21:00,46.0,32.0,30.16,West,264,1.0,3.0,57,0.00,,,0.00,,2013-05-05 05:21:00,
2013-05-04 23:31:00,45.0,32.0,30.17,West,264,0.0,2.0,61,0.00,,,0.00,,2013-05-05 05:31:00,
2013-05-04 23:42:00,45.0,32.0,30.17,West,264,0.0,2.0,61,0.00,,,0.00,,2013-05-05 05:42:00,
2013-05-04 23:51:00,43.0,31.0,30.16,West,264,0.0,1.0,63,0.00,,,0.00,,2013-05-05 05:51:00,